sat.trackr.live / text

‹ back to catalog

SCS-01 C

NORAD 63984 · 2025-100C

PAYLOAD ACTIVE UNKNOWN

§ Identity

Operator
Country
PRC
Launch date
2025-05-14
Launch site
JSC
Launch vehicle
Mass (kg)
RCS (m²)

External: N2YO · Heavens-Above · Gunter

§ Orbital elements

Epoch: 2026-05-25T03:46:27.840288Z

Period
94.74 min
Inclination
97.3669°
Eccentricity
0.0032216
Mean motion
15.19891286 rev/d
Perigee alt
484.0 km
Apogee alt
528.3 km
Semi-major
6,884.3 km
B*
4.2886e-4
RAAN
218.4517°
Arg perigee
83.6011°
Mean anomaly
276.8891°
Rev number
5,712

§ Raw data

SCS-01 C1 63984U 25100C   26145.15726667  .00009272  00000+0  42886-3 0  99962 63984  97.3669 218.4517 0032216  83.6011 276.8891 15.19891286 57129

JSON: /api/v1/satellites/63984 · /tle

For live sub-satellite position, see the globe view (requires WebGL).

§ Visibility from observer

Set your observer location to see the next 7 days of passes ≥ 10°. The values pass through the URL so the page stays shareable.

No JS? Fill the form by hand. The geolocation button needs JavaScript.